Regional Weather Roundup
Issued by NWS Kansas City/Pleasant Hill, MO

Home | Current Version | Previous Version | Text Only | Print | Product List | Glossary On
Versions: 1 2 3 4 5 6 7 8 9 10 11 12 13 14 15 16 17 18 19 20 21 22 23 24 25 26 27 28 29 30 31 32 33 34 35 36 37 38 39 40 41 42 43 44 45 46 47 48 49 50
000
ASUS43 KEAX 020804
RWREAX

WEATHER ROUNDUP FOR EASTERN KANSAS AND NORTHWEST MISSOURI
NATIONAL WEATHER SERVICE KANSAS CITY/PLEASANT HILL MO
300 AM CDT THU JUL 02 2015

KSZ040-057-103>105-MOZ028-029-037-043-020900-
...KANSAS CITY METROPOLITAN AREA...

CITY           SKY/WX    TMP DP  RH WIND       PRES   REMARKS
K.C. INTL      CLOUDY    73  70  90 E9        29.85F
K.C. DOWNTOWN  PTCLDY    74  70  87 E8        29.83S
LEES SUMMIT    CLOUDY    72  69  90 NE9       29.85R
OLATHE - IXD   CLEAR     71  69  93 NE6       29.85R
OLATHE - OJC   MOCLDY    71  70  96 NE6       29.84R
LAWRENCE       CLEAR     74  70  87 E8        29.83S

$$

MOZ001>008-011>017-020>025-030>033-038>040-044>046-053-054-020900-
...NORTHERN AND CENTRAL MISSOURI...

CITY           SKY/WX    TMP DP  RH WIND       PRES   REMARKS
ST. JOSEPH     CLOUDY    73  68  84 E8        29.87F
MOSBY          CLOUDY    73  70  88 E5        29.85S
HARRISONVILLE  MOCLDY    72  70  94 NE5       29.85S
WHITEMAN AFB   CLOUDY    71  71 100 E12       29.84S
CLINTON        NOT AVBL
SEDALIA        CLOUDY    72  69  90 E8        29.86F
WARSAW         NOT AVBL
CHILLICOTHE      N/A     71  67  87 E6        29.89S
KIRKSVILLE     CLOUDY    67  64  90 NE9       29.90F FOG

$$

MOZ041-047>049-056>058-063>065-088>090-097-020900-
...EASTERN AND SOUTHERN MISSOURI...

CITY           SKY/WX    TMP DP  RH WIND       PRES   REMARKS
ST. LOUIS INTL CLOUDY    73  70  88 CALM      29.85S
SPIRIT OF STL  CLOUDY    71  71 100 S3        29.85R
COLUMBIA       CLOUDY    71  69  93 E5        29.86F
JEFFERSON CITY CLOUDY    71  69  93 N5        29.84F
MEXICO         CLOUDY   N/A N/A N/A NE8       29.87F HAZE
ROLLA          CLOUDY    68  67  96 N3        29.85F
LEBANON        DRIZZLE   70  66  88 S7G17     29.85F
OSAGE BEACH    CLOUDY    70  66  88 N5        29.84S
SPRINGFIELD    TSTM      69  67  93 E9        29.86F
JOPLIN         CLOUDY    76  68  76 NE7       29.84R
WEST PLAINS    TSTM      71  68  90 NW18G33   29.96R VSB 3/4
MALDEN         CLOUDY    79  73  83 SW12G17   29.84F

$$

IAZ060-094-KSZ022-034>040-054-083-096-NEZ052-066-093-020900-
...KANSAS...SOUTHEAST NEBRASKA AND IOWA...

CITY           SKY/WX    TMP DP  RH WIND       PRES   REMARKS
TOPEKA         CLOUDY    76  71  85 NE6       29.84S
MANHATTAN      LGT RAIN  76  71  85 E10       29.85S
EMPORIA        CLEAR     74  70  87 NE9       29.82F
CHANUTE        PTCLDY    76  71  85 E9        29.80R
WICHITA        MOCLDY    78  72  81 NE12      29.83R
OMAHA          PTCLDY    67  60  78 E8        29.92F
LINCOLN        CLOUDY    69  65  86 E8        29.92F
FALLS CITY     CLOUDY    70  67  90 E7        29.88F
LAMONI         PTCLDY    64  59  83 NE8       29.92F
DES MOINES     CLEAR     62  55  77 E9        29.95S

$$




USA.gov is the U.S. government's official web portal to all federal, state and local government web resources and services.